Time,TemperatureF,DewpointF,PressureIn,WindDirection,WindDirectionDegrees,WindSpeedMPH,WindSpeedGustMPH,Humidity,HourlyPrecipIn,Conditions,Clouds,dailyrainin,SolarRadiationWatts/m^2,SoftwareType,DateUTC
2013-07-18 00:14:00,76.4,75.0,30.14,ENE,76,0.0,1.0,95,0.00,,,0.00,0,weatherlink.com 1.10,2013-07-18 04:14:00,
2013-07-18 00:29:00,76.4,75.0,30.14,ENE,76,0.0,1.0,95,0.00,,,0.00,0,weatherlink.com 1.10,2013-07-18 04:29:00,
2013-07-18 00:44:00,76.3,75.0,30.14,ENE,76,0.0,0.0,94,0.00,,,0.00,0,weatherlink.com 1.10,2013-07-18 04:44:00,
2013-07-18 00:59:00,76.1,75.0,30.14,ENE,76,0.0,0.0,95,0.00,,,0.00,0,weatherlink.com 1.10,2013-07-18 04:59:00,
2013-07-18 01:14:00,75.7,74.0,30.14,ENE,76,0.0,0.0,95,0.00,,,0.00,0,weatherlink.com 1.10,2013-07-18 05:14:00,
2013-07-18 01:29:00,75.5,74.0,30.14,ENE,76,0.0,0.0,95,0.00,,,0.00,0,weatherlink.com 1.10,2013-07-18 05:29:00,
2013-07-18 01:44:00,75.5,74.0,30.14,ENE,76,0.0,0.0,96,0.00,,,0.00,0,weatherlink.com 1.10,2013-07-18 05:44:00,
2013-07-18 01:59:00,75.4,74.0,30.14,ENE,76,0.0,0.0,96,0.00,,,0.00,0,weatherlink.com 1.10,2013-07-18 05:59:00,
2013-07-18 02:15:00,75.2,74.0,30.14,ENE,76,0.0,0.0,96,0.00,,,0.00,0,weatherlink.com 1.10,2013-07-18 06:15:00,
2013-07-18 02:30:00,75.0,74.0,30.14,ENE,76,0.0,0.0,96,0.00,,,0.00,0,weatherlink.com 1.10,2013-07-18 06:30:00,
2013-07-18 02:45:00,75.1,74.0,30.13,ENE,76,0.0,0.0,96,0.00,,,0.00,0,weatherlink.com 1.10,2013-07-18 06:45:00,
2013-07-18 03:00:00,75.1,74.0,30.12,ENE,76,0.0,0.0,96,0.00,,,0.00,0,weatherlink.com 1.10,2013-07-18 07:00:00,
2013-07-18 03:15:00,74.9,74.0,30.12,ENE,76,0.0,0.0,96,0.00,,,0.00,0,weatherlink.com 1.10,2013-07-18 07:15:00,
2013-07-18 03:30:00,74.8,74.0,30.12,ENE,76,0.0,0.0,96,0.00,,,0.00,0,weatherlink.com 1.10,2013-07-18 07:30:00,
2013-07-18 03:45:00,74.8,74.0,30.12,ENE,76,0.0,0.0,96,0.00,,,0.00,0,weatherlink.com 1.10,2013-07-18 07:45:00,
2013-07-18 04:00:00,74.8,74.0,30.12,ENE,76,0.0,0.0,96,0.00,,,0.00,0,weatherlink.com 1.10,2013-07-18 08:00:00,
2013-07-18 04:15:00,74.7,74.0,30.11,ENE,76,0.0,0.0,97,0.00,,,0.00,0,weatherlink.com 1.10,2013-07-18 08:15:00,
2013-07-18 04:30:00,74.5,73.0,30.11,ENE,76,0.0,0.0,96,0.00,,,0.00,0,weatherlink.com 1.10,2013-07-18 08:30:00,
2013-07-18 04:45:00,74.4,74.0,30.11,ENE,76,0.0,1.0,97,0.00,,,0.00,0,weatherlink.com 1.10,2013-07-18 08:45:00,
2013-07-18 05:00:00,74.5,74.0,30.11,ENE,76,0.0,0.0,97,0.00,,,0.00,0,weatherlink.com 1.10,2013-07-18 09:00:00,
2013-07-18 05:15:00,74.7,74.0,30.11,SE,146,1.0,2.0,97,0.00,,,0.00,0,weatherlink.com 1.10,2013-07-18 09:15:00,
2013-07-18 05:30:00,74.6,74.0,30.11,SE,146,0.0,0.0,97,0.00,,,0.00,0,weatherlink.com 1.10,2013-07-18 09:30:00,
2013-07-18 05:45:00,74.3,73.0,30.11,SE,146,0.0,0.0,97,0.00,,,0.00,0,weatherlink.com 1.10,2013-07-18 09:45:00,
2013-07-18 06:00:00,74.1,73.0,30.12,SE,146,0.0,0.0,96,0.00,,,0.00,0,weatherlink.com 1.10,2013-07-18 10:00:00,
2013-07-18 06:15:00,74.0,73.0,30.12,SE,146,0.0,0.0,97,0.00,,,0.00,0,weatherlink.com 1.10,2013-07-18 10:15:00,
2013-07-18 06:30:00,73.9,73.0,30.13,SE,146,0.0,0.0,97,0.00,,,0.00,14,weatherlink.com 1.10,2013-07-18 10:30:00,
2013-07-18 06:45:00,74.0,73.0,30.13,SE,146,0.0,0.0,97,0.00,,,0.00,26,weatherlink.com 1.10,2013-07-18 10:45:00,
2013-07-18 07:00:00,74.3,73.0,30.13,SE,146,0.0,0.0,97,0.00,,,0.00,35,weatherlink.com 1.10,2013-07-18 11:00:00,
2013-07-18 07:15:00,74.8,74.0,30.13,SE,146,0.0,0.0,97,0.00,,,0.00,69,weatherlink.com 1.10,2013-07-18 11:15:00,
2013-07-18 07:30:00,75.5,75.0,30.13,SE,146,0.0,0.0,97,0.00,,,0.00,113,weatherlink.com 1.10,2013-07-18 11:30:00,
2013-07-18 07:45:00,75.9,75.0,30.13,SE,146,0.0,0.0,97,0.00,,,0.00,123,weatherlink.com 1.10,2013-07-18 11:45:00,
2013-07-18 08:00:00,76.4,75.0,30.14,WSW,237,1.0,3.0,95,0.00,,,0.00,144,weatherlink.com 1.10,2013-07-18 12:00:00,
2013-07-18 08:15:00,77.1,75.0,30.13,WSW,238,1.0,3.0,94,0.00,,,0.00,165,weatherlink.com 1.10,2013-07-18 12:15:00,
2013-07-18 08:30:00,78.0,76.0,30.13,WSW,238,0.0,0.0,93,0.00,,,0.00,271,weatherlink.com 1.10,2013-07-18 12:30:00,
2013-07-18 08:45:00,78.9,77.0,30.13,WSW,238,0.0,2.0,92,0.00,,,0.00,223,weatherlink.com 1.10,2013-07-18 12:45:00,
2013-07-18 09:00:00,80.1,77.0,30.14,SSW,198,0.0,2.0,90,0.00,,,0.00,350,weatherlink.com 1.10,2013-07-18 13:00:00,
2013-07-18 09:15:00,81.2,77.0,30.13,SW,231,0.0,3.0,87,0.00,,,0.00,461,weatherlink.com 1.10,2013-07-18 13:15:00,
2013-07-18 09:31:00,82.4,78.0,30.13,North,5,0.0,2.0,87,0.00,,,0.00,499,weatherlink.com 1.10,2013-07-18 13:31:00,
2013-07-18 09:46:00,84.0,78.0,30.13,North,355,0.0,1.0,83,0.00,,,0.00,526,weatherlink.com 1.10,2013-07-18 13:46:00,
2013-07-18 10:01:00,85.8,79.0,30.13,NNE,15,0.0,1.0,79,0.00,,,0.00,564,weatherlink.com 1.10,2013-07-18 14:01:00,
2013-07-18 10:16:00,87.1,80.0,30.13,NE,46,0.0,2.0,78,0.00,,,0.00,596,weatherlink.com 1.10,2013-07-18 14:16:00,
2013-07-18 10:31:00,86.8,80.0,30.13,NE,46,1.0,2.0,79,0.00,,,0.00,647,weatherlink.com 1.10,2013-07-18 14:31:00,
2013-07-18 10:46:00,88.1,79.0,30.13,ESE,115,0.0,2.0,75,0.00,,,0.00,677,weatherlink.com 1.10,2013-07-18 14:46:00,
2013-07-18 11:01:00,87.9,78.0,30.13,East,81,1.0,4.0,73,0.00,,,0.00,717,weatherlink.com 1.10,2013-07-18 15:01:00,
2013-07-18 11:16:00,88.6,81.0,30.14,SW,232,0.0,3.0,79,0.00,,,0.00,782,weatherlink.com 1.10,2013-07-18 15:16:00,
2013-07-18 11:31:00,89.7,75.0,30.13,WSW,249,1.0,3.0,63,0.00,,,0.00,858,weatherlink.com 1.10,2013-07-18 15:31:00,
2013-07-18 11:46:00,90.2,77.0,30.13,West,261,2.0,2.0,66,0.00,,,0.00,891,weatherlink.com 1.10,2013-07-18 15:46:00,
2013-07-18 12:01:00,91.3,77.0,30.13,SSE,147,1.0,1.0,64,0.00,,,0.00,912,weatherlink.com 1.10,2013-07-18 16:01:00,
2013-07-18 12:16:00,90.1,78.0,30.12,WSW,252,2.0,5.0,67,0.00,,,0.00,912,weatherlink.com 1.10,2013-07-18 16:16:00,
2013-07-18 12:31:00,88.7,79.0,30.13,WSW,252,0.0,0.0,73,0.00,,,0.00,299,weatherlink.com 1.10,2013-07-18 16:31:00,
2013-07-18 12:46:00,89.3,79.0,30.12,WSW,249,1.0,3.0,72,0.00,,,0.00,963,weatherlink.com 1.10,2013-07-18 16:46:00,
2013-07-18 13:01:00,89.4,78.0,30.12,West,278,0.0,0.0,70,0.00,,,0.00,220,weatherlink.com 1.10,2013-07-18 17:01:00,
2013-07-18 13:16:00,87.6,78.0,30.12,West,278,0.0,0.0,72,0.00,,,0.00,186,weatherlink.com 1.10,2013-07-18 17:16:00,
2013-07-18 13:31:00,86.9,78.0,30.12,West,278,0.0,0.0,75,0.00,,,0.00,322,weatherlink.com 1.10,2013-07-18 17:31:00,
2013-07-18 13:46:00,87.6,79.0,30.11,NNW,334,0.0,0.0,76,0.00,,,0.00,577,weatherlink.com 1.10,2013-07-18 17:46:00,
2013-07-18 14:01:00,88.8,79.0,30.11,ENE,63,0.0,0.0,72,0.00,,,0.00,657,weatherlink.com 1.10,2013-07-18 18:01:00,
2013-07-18 14:16:00,90.3,77.0,30.10,ENE,63,0.0,1.0,64,0.00,,,0.00,895,weatherlink.com 1.10,2013-07-18 18:16:00,
2013-07-18 14:31:00,91.6,79.0,30.09,SW,227,3.0,4.0,66,0.00,,,0.00,891,weatherlink.com 1.10,2013-07-18 18:31:00,
2013-07-18 14:46:00,91.5,76.0,30.09,WSW,240,5.0,7.0,61,0.00,,,0.00,828,weatherlink.com 1.10,2013-07-18 18:46:00,
2013-07-18 15:02:00,91.3,75.0,30.08,SE,144,2.0,6.0,59,0.00,,,0.00,840,weatherlink.com 1.10,2013-07-18 19:02:00,
2013-07-18 15:17:00,91.5,77.0,30.08,SSE,161,1.0,8.0,62,0.00,,,0.00,826,weatherlink.com 1.10,2013-07-18 19:17:00,
2013-07-18 15:32:00,91.9,78.0,30.07,WSW,239,0.0,4.0,63,0.00,,,0.00,773,weatherlink.com 1.10,2013-07-18 19:32:00,
2013-07-18 15:47:00,92.3,75.0,30.07,SE,134,1.0,4.0,58,0.00,,,0.00,772,weatherlink.com 1.10,2013-07-18 19:47:00,
2013-07-18 16:02:00,92.4,75.0,30.07,WSW,246,1.0,4.0,57,0.00,,,0.00,761,weatherlink.com 1.10,2013-07-18 20:02:00,
2013-07-18 16:17:00,91.1,76.0,30.06,NE,49,1.0,2.0,61,0.00,,,0.00,628,weatherlink.com 1.10,2013-07-18 20:17:00,
2013-07-18 16:32:00,90.5,77.0,30.06,WSW,248,2.0,3.0,64,0.00,,,0.00,468,weatherlink.com 1.10,2013-07-18 20:32:00,
2013-07-18 16:47:00,91.3,76.0,30.06,WSW,249,0.0,3.0,62,0.00,,,0.00,624,weatherlink.com 1.10,2013-07-18 20:47:00,
2013-07-18 17:02:00,91.8,76.0,30.05,WSW,254,0.0,4.0,61,0.00,,,0.00,617,weatherlink.com 1.10,2013-07-18 21:02:00,
2013-07-18 17:17:00,91.4,79.0,30.05,NE,45,1.0,4.0,68,0.00,,,0.00,499,weatherlink.com 1.10,2013-07-18 21:17:00,
2013-07-18 17:32:00,89.8,78.0,30.05,East,101,0.0,4.0,68,0.00,,,0.00,120,weatherlink.com 1.10,2013-07-18 21:32:00,
2013-07-18 17:47:00,87.4,78.0,30.05,ESE,104,0.0,0.0,73,0.00,,,0.00,84,weatherlink.com 1.10,2013-07-18 21:47:00,
2013-07-18 18:02:00,83.8,78.0,30.04,ESE,104,0.0,0.0,82,0.02,,,0.02,97,weatherlink.com 1.10,2013-07-18 22:02:00,
2013-07-18 18:17:00,81.2,77.0,30.05,West,263,4.0,9.0,86,0.02,,,0.02,51,weatherlink.com 1.10,2013-07-18 22:17:00,
2013-07-18 18:32:00,81.5,77.0,30.05,SSE,166,0.0,3.0,87,0.02,,,0.02,46,weatherlink.com 1.10,2013-07-18 22:32:00,
2013-07-18 18:47:00,82.1,77.0,30.05,WSW,237,5.0,7.0,83,0.02,,,0.02,63,weatherlink.com 1.10,2013-07-18 22:47:00,
2013-07-18 19:02:00,81.8,76.0,30.05,SE,142,3.0,5.0,83,0.00,,,0.02,93,weatherlink.com 1.10,2013-07-18 23:02:00,
2013-07-18 19:17:00,82.0,77.0,30.05,ESE,120,1.0,5.0,85,0.00,,,0.02,102,weatherlink.com 1.10,2013-07-18 23:17:00,
2013-07-18 19:32:00,81.5,76.0,30.06,SSE,167,0.0,3.0,83,0.00,,,0.02,58,weatherlink.com 1.10,2013-07-18 23:32:00,
2013-07-18 19:47:00,81.1,76.0,30.06,SSE,154,2.0,3.0,83,0.00,,,0.02,5,weatherlink.com 1.10,2013-07-18 23:47:00,
2013-07-18 20:02:00,80.9,77.0,30.06,WSW,246,0.0,2.0,87,0.00,,,0.02,0,weatherlink.com 1.10,2013-07-19 00:02:00,
2013-07-18 20:17:00,80.1,77.0,30.07,WSW,246,0.0,0.0,89,0.00,,,0.02,0,weatherlink.com 1.10,2013-07-19 00:17:00,
2013-07-18 20:32:00,79.7,77.0,30.07,WSW,246,0.0,0.0,90,0.00,,,0.02,0,weatherlink.com 1.10,2013-07-19 00:32:00,
2013-07-18 20:47:00,79.6,77.0,30.08,WSW,246,0.0,0.0,91,0.00,,,0.02,0,weatherlink.com 1.10,2013-07-19 00:47:00,
2013-07-18 21:02:00,79.2,76.0,30.08,WSW,246,0.0,0.0,91,0.00,,,0.02,0,weatherlink.com 1.10,2013-07-19 01:02:00,
2013-07-18 21:17:00,78.9,77.0,30.07,WSW,246,0.0,0.0,92,0.00,,,0.02,0,weatherlink.com 1.10,2013-07-19 01:17:00,
2013-07-18 21:32:00,78.8,77.0,30.07,WSW,246,0.0,0.0,93,0.00,,,0.02,0,weatherlink.com 1.10,2013-07-19 01:32:00,
2013-07-18 21:47:00,78.3,76.0,30.09,WSW,246,0.0,0.0,93,0.00,,,0.02,0,weatherlink.com 1.10,2013-07-19 01:47:00,
2013-07-18 22:02:00,78.3,77.0,30.09,WSW,246,0.0,0.0,94,0.00,,,0.02,0,weatherlink.com 1.10,2013-07-19 02:02:00,
2013-07-18 22:17:00,78.2,76.0,30.09,WSW,246,0.0,0.0,94,0.00,,,0.02,0,weatherlink.com 1.10,2013-07-19 02:17:00,
2013-07-18 22:32:00,77.7,76.0,30.10,WSW,246,0.0,0.0,94,0.00,,,0.02,0,weatherlink.com 1.10,2013-07-19 02:32:00,
2013-07-18 22:47:00,77.6,76.0,30.10,WSW,246,0.0,0.0,95,0.00,,,0.02,0,weatherlink.com 1.10,2013-07-19 02:47:00,
2013-07-18 23:02:00,77.4,76.0,30.10,WSW,246,0.0,0.0,95,0.00,,,0.02,0,weatherlink.com 1.10,2013-07-19 03:02:00,
2013-07-18 23:17:00,77.0,76.0,30.10,WSW,246,0.0,0.0,95,0.00,,,0.02,0,weatherlink.com 1.10,2013-07-19 03:17:00,
2013-07-18 23:32:00,76.7,75.0,30.10,WSW,246,0.0,0.0,95,0.00,,,0.02,0,weatherlink.com 1.10,2013-07-19 03:32:00,
2013-07-18 23:47:00,76.6,75.0,30.10,WSW,246,0.0,0.0,96,0.00,,,0.02,0,weatherlink.com 1.10,2013-07-19 03:47:00,